Location: Chanteloup
(48.8560°N, 2.7390°E)
Time: 07:09:06
(UTC+00:00)

Spot 2 - Visible Passes

Search period start: 21 May 2022 00:00
Search period end: 31 May 2022 00:00
Orbit: 568 x 773 km, 98.7° (Epoch: 20 May)

Date Brightness Start Highest point End Pass type
(mag) Time Alt. Az. Time Alt. Az. Time Alt. Az.
22 May 5.6 20:08:37 10° SSW 20:12:17 32° W 20:15:56 10° NNW visible
23 May 6.6 20:42:55 10° SW 20:45:23 16° W 20:47:50 10° NW visible
26 May 6.6 20:44:23 10° SW 20:46:48 15° W 20:49:14 10° NW visible
29 May 6.6 20:45:48 10° SW 20:48:12 15° W 20:50:37 10° NW visible
